Regional Weather Roundup
Issued by NWS

Home | Current Version | Previous Version | Graphics & Text | Print | Product List | Glossary On
Versions: 1 2 3 4 5 6 7 8 9 10 11 12 13 14 15 16 17 18 19 20 21 22 23 24 25 26 27 28 29 30 31 32 33 34 35 36 37 38 39 40 41 42 43 44 45 46 47 48 49 50
000
ASUS45 KBOU 290507
RWRCO

WEATHER ROUNDUP FOR COLORADO
NATIONAL WEATHER SERVICE DENVER/BOULDER CO
1100 PM MDT THU MAY 28 2015

NOTE: "FAIR" INDICATES FEW OR NO CLOUDS BELOW 12000 FEET WITH NO
SIGNIFICANT WEATHER AND/OR OBSTRUCTIONS TO VISIBILITY.

COZ001>005-013-030-031-290600-
...NORTHWEST COLORADO...

CITY           SKY/WX    TMP DP  RH WIND       PRES   REMARKS
CRAIG          CLOUDY    47  41  80 E3        30.24R
HAYDEN         MOCLDY    43  37  81 E5        30.25S
MEEKER         MOCLDY    45  40  82 N7        30.26R
MOUNT WERNER   NOT AVBL
STEAMBOAT SPGS PTCLDY    40  38  93 CALM      30.27S
WALDEN         CLOUDY    37  34  87 SE5       30.27S
$$

COZ006>008-011-290600-
...WEST CENTRAL VALLEYS...

CITY           SKY/WX    TMP DP  RH WIND       PRES   REMARKS
GRAND JUNCTION PTCLDY    53  48  83 CALM      30.17R
MONTROSE       MOCLDY    52  41  66 SE8       30.22R
EAGLE          PTCLDY    55  46  71 E8        30.27R
RIFLE          MOCLDY    53  42  66 S7        30.21F
DELTA          MOCLDY    56  44  65 CALM      30.19F
NUCLA          MOCLDY    50  43  76 E7        30.23S
$$

COZ017>023-064>068-290600-
...SOUTHWEST COLORADO...

CITY           SKY/WX    TMP DP  RH WIND       PRES   REMARKS
DURANGO        PTCLDY    51  38  60 CALM      30.18S
CORTEZ         PTCLDY    56  43  61 E9        30.17F
PAGOSA SPRINGS PTCLDY    47  37  66 NE3       30.25R
TELLURIDE      MOCLDY    42  40  92 SE3       30.37R
WOLF CREEK PAS NOT AVBL
$$

COZ009-010-012-014-032>034-037-058>063-290600-
...CENTRAL COLORADO...

CITY           SKY/WX    TMP DP  RH WIND       PRES   REMARKS
ASPEN          PTCLDY    39  36  89 S3        30.29R
BUENA VISTA    PTCLDY    44  35  70 W5        30.26S
COPPER MTN     MOCLDY    34  28  80 W16       30.41F WCI  23
BERTHOUD PASS  FAIR      23  18  80 NW20      30.42S WCI   8
COTTONWOOD PAS PTCLDY    43  32  65 N6        30.33S
GUNNISON       CLEAR     43  34  70 S3        30.30S
KREMMLING      MOCLDY    43  34  70 E3        30.28F
LEADVILLE      PTCLDY    35  30  82 N8        30.32F WCI  29
MONARCH PASS   FOG       32  30  93 MISG      30.52R VSB<1/4
SALIDA         PTCLDY    52  36  53 NW6       30.32R
SUNLIGHT       SNOW      34  34 100 SW3       30.40F VSB 1/2
WILKERSON PASS PTCLDY    34  28  80 NE6       30.42S WCI  29
$$

COZ069>075-290600-
...SAN LUIS VALLEY/SANGRE DE CRISTO MOUNTAINS...

CITY           SKY/WX    TMP DP  RH WIND       PRES   REMARKS
ALAMOSA        PTCLDY    51  34  52 N17       30.23F
LA VETA PASS   MOCLDY   N/A N/A N/A MISG      30.36R
SAGUACHE       PTCLDY    45  36  70 N13       30.28R
$$

COZ035-036-038>040-290600-
...NORTHERN COLORADO FRONT RANGE...

CITY           SKY/WX    TMP DP  RH WIND       PRES   REMARKS
DENVER INTL AP CLOUDY    55  47  74 S9        30.15R
DMNS CITY PARK   N/A     57  45  65 S5        30.14S
AURORA         MOCLDY    53  49  88 S8        30.17R
FRONT RANGE AP NOT AVBL
ERIE MUNI ARPT CLOUDY    55  41  60 CALM      30.13S
BOULDER MUN AP CLOUDY    59  34  38 SW6       30.13S
CENTENNIAL     CLOUDY    54  47  77 SE7       30.17R
BROOMFIELD     NOT AVBL
FORT COLLINS   CLOUDY    57  48  72 CALM      30.14R
LONGMONT       CLOUDY    59  49  69 CALM      30.15R
$$

COZ041-046-047-076>085-087-088-290600-
...PIKES PEAK/PALMER DIVIDE AND SOUTHERN FOOTHILLS...

CITY           SKY/WX    TMP DP  RH WIND       PRES   REMARKS
COLO. SPRINGS  MOCLDY    52  46  80 NE8       30.19S THUNDER
A. F. ACADEMY  MOCLDY    49  43  79 N3        30.21F
ELLICOTT         N/A    N/A N/A N/A N15G21    30.17R
FALCON         TSTM      47  45  95 NE54G137  30.21F
FORT CARSON    CLOUDY    52  46  79 N14       30.17S
LIMON          RAIN      52  51  97 NW12      30.19R FOG
MONUMENT HILL  CLOUDY    43  41  93 MISG      30.23R
TRINIDAD       MOCLDY    57  47  69 NE5       30.11R
$$

COZ042>045-048>051-090-091-290600-
...NORTHEAST COLORADO...

CITY           SKY/WX    TMP DP  RH WIND       PRES   REMARKS
GREELEY ARPT   CLOUDY    61  45  55 CALM      30.12R
AKRON          CLOUDY    52  48  86 NW9       30.07S
BURLINGTON     CLOUDY    55  49  80 NW15      30.07R
WRAY           CLOUDY    55  53  90 SW6       30.02F
STERLING       CLOUDY    55  48  76 W12       30.03R
HOLYOKE        CLOUDY    59  54  82 W7        30.02F
FORT MORGAN    CLOUDY    50  47  91 W9        30.11R
$$

COZ086-089-092>099-290600-
...SOUTHEAST COLORADO...

CITY           SKY/WX    TMP DP  RH WIND       PRES   REMARKS
PUEBLO         PTCLDY    56  51  84 NE6       30.11R
LA JUNTA       PTCLDY    58  50  75 NW9       30.09R
LAMAR          MOCLDY    53  50  89 W8        30.04R
SPRINGFIELD      N/A     54  51  90 CALM      30.06R
$$



USA.gov is the U.S. government's official web portal to all federal, state and local government web resources and services.